Petersburg, WV

5:39 AM EST on December 10, 2019 (GMT -0500)
Petersburg

Weather History for KW99 - September, 2019

Change the Weather History Date:

Tuesday, September 24, 2019

  Actual Average (WUND) Record (WUND)
Temperature  
Mean Temperature 63 °F -  
Max Temperature 76 °F - - (-1)
Min Temperature 50 °F - - (-1)
Degree Days  
Heating Degree Days 2    
Growing Degree Days 13 (Base 50)    
Moisture  
Dew Point 52 °F    
Average Humidity 70    
Maximum Humidity 100    
Minimum Humidity 36    
Precipitation  
Precipitation 0.00 in - - ()
Sea Level Pressure  
Sea Level Pressure 29.96 in    
Wind  
Wind Speed 2 mph (NW)    
Max Wind Speed 14 mph    
Max Gust Speed 20 mph    
Visibility 8 miles    
Events      
Averages and records for this station are not official NWS values.
T = Trace of Precipitation, MM = Missing Value Source: NWS Daily Summary

Daily Weather History Graph

Daily Weather History Graph

Search for Another Location

Airport or City:

Astronomy

Sep. 24, 2019 Rise Set
Actual Time 7:05 AM EDT 7:10 PM EDT
Civil Twilight 6:39 AM EDT 7:37 PM EDT
Nautical Twilight 6:08 AM EDT 8:08 PM EDT
Astronomical Twilight 5:36 AM EDT 8:39 PM EDT
Moon 1:52 AM EDT (9/24) 4:52 PM EDT (9/24)
Length of Visible Light 12h 58m
Length of Day
12h 04m
Waning Crescent, 23% of the Moon is Illuminated
Sep 24
Waning Crescent
Sep 28
New
Oct 5
First Quarter
Oct 13
Full
Oct 21
Last Quarter

Hourly Weather History & Observations

Time (EDT) Temp. Dew Point Humidity Pressure Visibility Wind Dir Wind Speed Gust Speed Precip Events Conditions
12:15 AM 64.4 °F 62.8 °F 94% 29.93 in 10.0 mi Calm Calm - N/A   Overcast
12:35 AM 64.0 °F 62.4 °F 94% 29.93 in 10.0 mi Calm Calm - N/A   Mostly Cloudy
12:55 AM 63.5 °F 61.5 °F 93% 29.93 in 10.0 mi Calm Calm - N/A   Scattered Clouds
1:15 AM 62.2 °F 61.0 °F 96% 29.93 in 10.0 mi Calm Calm - N/A   Scattered Clouds
1:35 AM 61.3 °F 60.8 °F 98% 29.93 in 10.0 mi Calm Calm - N/A   Scattered Clouds
1:55 AM 61.0 °F 59.7 °F 96% 29.93 in 10.0 mi Calm Calm - N/A   Scattered Clouds
2:15 AM 61.2 °F 60.8 °F 99% 29.92 in 10.0 mi Calm Calm - N/A   Clear
2:35 AM 59.2 °F 59.0 °F 99% 29.92 in 1.8 mi Calm Calm - N/A   Mist
2:55 AM 59.9 °F 59.9 °F 100% 29.92 in 1.5 mi Calm Calm - N/A   Mostly Cloudy
3:15 AM 59.2 °F 59.2 °F 100% 29.92 in 2.5 mi Calm Calm - N/A   Scattered Clouds
3:35 AM 58.8 °F 58.8 °F 100% 29.92 in 1.5 mi Calm Calm - N/A   Mostly Cloudy
3:55 AM 58.5 °F 58.5 °F 100% 29.93 in 5.0 mi Calm Calm - N/A   Scattered Clouds
4:15 AM 58.6 °F 58.6 °F 100% 29.93 in 7.0 mi Calm Calm - N/A   Clear
4:35 AM 58.3 °F 58.1 °F 99% 29.93 in 7.0 mi Calm Calm - N/A   Scattered Clouds
4:55 AM 58.6 °F 56.8 °F 94% 29.94 in 10.0 mi Calm Calm - N/A   Clear
5:15 AM 57.7 °F 56.5 °F 96% 29.94 in 10.0 mi Calm Calm - N/A   Clear
5:35 AM 57.6 °F 56.5 °F 96% 29.94 in 10.0 mi Calm Calm - N/A   Clear
5:55 AM 56.8 °F 55.0 °F 94% 29.95 in 10.0 mi Calm Calm - N/A   Clear
6:15 AM 60.3 °F 53.1 °F 77% 29.97 in 10.0 mi NW 5.8 mph - N/A   Scattered Clouds
6:35 AM 61.0 °F 51.8 °F 72% 29.97 in 10.0 mi NW 5.8 mph - N/A   Clear
6:55 AM 60.4 °F 51.3 °F 72% 29.97 in 10.0 mi North 3.5 mph - N/A   Clear
7:15 AM 60.3 °F 51.1 °F 72% 29.98 in 10.0 mi Calm Calm - N/A   Clear
7:35 AM 56.3 °F 51.3 °F 83% 29.98 in 10.0 mi Calm Calm - N/A   Clear
7:55 AM 57.6 °F 52.2 °F 82% 29.98 in 10.0 mi Calm Calm - N/A   Scattered Clouds
8:15 AM 59.2 °F 54.5 °F 84% 29.99 in 10.0 mi Calm Calm - N/A   Clear
8:35 AM 62.4 °F 54.9 °F 76% 29.99 in 10.0 mi Calm Calm - N/A   Clear
8:55 AM 63.3 °F 53.2 °F 70% 30.00 in 10.0 mi WNW 3.5 mph - N/A   Scattered Clouds
9:15 AM 64.6 °F 52.3 °F 64% 30.00 in 10.0 mi Calm Calm - N/A   Scattered Clouds
9:35 AM 64.4 °F 51.3 °F 62% 30.00 in 10.0 mi NW 3.5 mph - N/A   Scattered Clouds
9:55 AM 65.7 °F 50.7 °F 58% 30.01 in 10.0 mi NW 6.9 mph - N/A   Scattered Clouds
10:15 AM 65.8 °F 49.8 °F 56% 30.01 in 10.0 mi North 6.9 mph - N/A   Mostly Cloudy
10:35 AM 67.6 °F 50.2 °F 54% 30.01 in 10.0 mi WNW 11.5 mph 18.4 mph N/A   Overcast
10:55 AM 68.2 °F 50.4 °F 53% 30.01 in 10.0 mi NW 8.1 mph - N/A   Overcast
11:15 AM 69.3 °F 49.8 °F 50% 30.01 in 10.0 mi WNW 11.5 mph - N/A   Mostly Cloudy
11:35 AM 70.5 °F 50.0 °F 48% 30.00 in 7.0 mi NW 10.4 mph 16.1 mph N/A   Scattered Clouds
11:55 AM 69.3 °F 48.7 °F 48% 30.00 in 10.0 mi WNW 9.2 mph - N/A   Mostly Cloudy
12:15 PM 70.2 °F 48.7 °F 46% 30.00 in 7.0 mi NW 8.1 mph 16.1 mph N/A   Mostly Cloudy
12:30 PM 71.4 °F 48.9 °F 45% 29.99 in 10.0 mi North 8.1 mph - N/A   Scattered Clouds
12:55 PM 70.9 °F 48.0 °F 44% 29.98 in 10.0 mi West 4.6 mph - N/A   Clear
1:15 PM 74.3 °F 49.5 °F 41% 29.97 in 10.0 mi NW 6.9 mph - N/A   Scattered Clouds
1:35 PM 73.9 °F 48.0 °F 40% 29.97 in 2.5 mi NNW 6.9 mph - N/A   Haze
1:55 PM 74.3 °F 48.4 °F 40% 29.96 in 3.0 mi WNW 13.8 mph - N/A   Haze
2:10 PM 73.2 °F 46.4 °F 38% 29.96 in 2.0 mi WNW 11.5 mph 18.4 mph N/A   Haze
2:35 PM 73.9 °F 47.5 °F 39% 29.95 in 3.0 mi WNW 11.5 mph 17.3 mph N/A   Haze
2:55 PM 75.4 °F 46.9 °F 36% 29.95 in 3.0 mi WNW 13.8 mph 19.6 mph N/A   Haze
3:15 PM 76.1 °F 47.8 °F 37% 29.94 in 3.0 mi West 9.2 mph 17.3 mph N/A   Haze
3:35 PM 73.8 °F 46.6 °F 38% 29.93 in 4.0 mi WNW 11.5 mph - N/A   Haze
3:55 PM 75.6 °F 47.7 °F 37% 29.93 in 3.0 mi West 9.2 mph - N/A   Haze
4:15 PM 76.3 °F 48.6 °F 38% 29.93 in 5.0 mi West 8.1 mph - N/A   Haze
4:35 PM 74.3 °F 48.6 °F 40% 29.93 in 3.0 mi NNW 9.2 mph - N/A   Haze
4:55 PM 72.1 °F 48.4 °F 43% 29.93 in 3.0 mi WNW 8.1 mph - N/A   Haze
5:35 PM 72.0 °F 48.4 °F 43% 29.94 in 2.5 mi NW 5.8 mph - N/A   Haze
5:55 PM 71.4 °F 47.8 °F 43% 29.93 in 2.5 mi WNW 6.9 mph - N/A   Haze
6:35 PM 70.2 °F 48.0 °F 45% 29.94 in 3.0 mi WNW 6.9 mph - N/A   Haze
6:55 PM 67.8 °F 48.7 °F 50% 29.94 in 4.0 mi WNW 6.9 mph - N/A   Haze
7:15 PM 66.6 °F 49.5 °F 54% 29.95 in 7.0 mi Calm Calm - N/A   Clear
7:35 PM 64.2 °F 49.1 °F 58% 29.95 in 10.0 mi Calm Calm - N/A   Scattered Clouds
7:55 PM 62.6 °F 51.3 °F 66% 29.95 in 10.0 mi Calm Calm - N/A   Scattered Clouds
8:15 PM 59.5 °F 51.6 °F 75% 29.96 in 10.0 mi Calm Calm - N/A   Clear
8:35 PM 57.9 °F 51.3 °F 78% 29.97 in 10.0 mi Calm Calm - N/A   Clear
8:55 PM 58.3 °F 52.0 °F 80% 29.97 in 10.0 mi Calm Calm - N/A   Clear
9:15 PM 55.8 °F 50.7 °F 83% 29.98 in 10.0 mi Calm Calm - N/A   Clear
9:35 PM 54.9 °F 50.2 °F 84% 29.98 in 10.0 mi Calm Calm - N/A   Clear
9:55 PM 54.9 °F 51.1 °F 87% 29.98 in 10.0 mi Calm Calm - N/A   Clear
10:15 PM 54.1 °F 49.5 °F 84% 29.98 in 10.0 mi Calm Calm - N/A   Clear
10:30 PM 53.1 °F 50.9 °F 92% 29.98 in 10.0 mi Calm Calm - N/A   Clear
10:55 PM 51.4 °F 49.8 °F 94% 29.99 in 10.0 mi Calm Calm - N/A   Clear
11:15 PM 52.5 °F 50.5 °F 93% 29.99 in 10.0 mi Calm Calm - N/A   Clear
11:35 PM 50.5 °F 48.0 °F 91% 29.99 in 10.0 mi Calm Calm - N/A   Clear
11:55 PM 50.7 °F 49.5 °F 95% 29.98 in 10.0 mi Calm Calm - N/A   Clear